Powrót do katalogu

STARLINK-35123

AktywnyŁącznośćVLEO
NORAD 65634·PAYLOAD·🇺🇸 United States

Wystrzelony Sep 18, 2025 z Cape Canaveral Space Force Station

Loading…

Następne Przeloty (najbliższe 24 godziny)

TLE

ŚwieżeSource: CelesTrak SupGP

Epoka: Sep 14, 2026, 14:38 UTC

1 65634C 25210N   26257.61020833  .00055127  00000+0  17730-2 0  2575
2 65634  53.1571 148.6203 0001151  88.0148 101.4057 15.31669788    12

Śledź STARLINK-35123 w czasie rzeczywistym z AllMySat

Download on the App Store